Weather reports worldwide

Advertisment
Moron de la Frontera, Spain (8397): temperature & dewpoint: 19.08.2019 07:00:00 - 25.08.2019 07:00:00 (CEST)Moron de la Frontera, Spain (8397): wind speed: 19.08.2019 07:00:00 - 25.08.2019 07:00:00 (CEST)Moron de la Frontera, Spain (8397): wind direction: 19.08.2019 07:00:00 - 25.08.2019 07:00:00 (CEST)Moron de la Frontera, Spain (8397): reduced air pressure: 19.08.2019 07:00:00 - 25.08.2019 07:00:00 (CEST)Moron de la Frontera, Spain (8397): visibility: 19.08.2019 07:00:00 - 25.08.2019 07:00:00 (CEST)
Date & Time tt [°C] td [°C] ff [km/h] ff [kn] dd ppp [hPa] vv [km]
25.08.2019 07:00:00 - - - - - - -
25.08.2019 06:00:00 - - - - - - -
25.08.2019 05:00:00 - - - - - - -
25.08.2019 04:00:00 - - - - - - -
25.08.2019 03:00:00 - - - - - - -
25.08.2019 02:00:00 22,8 18,1 4 2 WSW 1016,4 20
25.08.2019 01:00:00 - - - - - - -
25.08.2019 00:00:00 - - - - - - -
24.08.2019 23:00:00 25,0 17,7 11 6 W 1015,6 25
24.08.2019 22:00:00 - - - - - - -
24.08.2019 21:00:00 - - - - - - -
24.08.2019 20:00:00 34,3 15,2 5 3 W 1012,8 25
24.08.2019 19:00:00 - - - - - - -
24.08.2019 18:00:00 - - - - - - -
24.08.2019 17:00:00 36,1 16,3 8 4 W 1013,5 25
24.08.2019 16:00:00 - - - - - - -
24.08.2019 15:00:00 - - - - - - -
24.08.2019 14:00:00 33,5 15,0 4 2 N 1015,4 25
24.08.2019 13:00:00 - - - - - - -
24.08.2019 12:00:00 - - - - - - -
24.08.2019 11:00:00 28,8 13,5 4 2 S 1016,5 25
24.08.2019 10:00:00 - - - - - - -
24.08.2019 09:00:00 - - - - - - -
24.08.2019 08:00:00 19,4 14,2 4 2 E 1016,1 20
24.08.2019 07:00:00 - - - - - - -
24.08.2019 06:00:00 - - - - - - -
24.08.2019 05:00:00 20,0 15,0 4 2 SE 1016,5 20
24.08.2019 04:00:00 - - - - - - -
24.08.2019 03:00:00 - - - - - - -
24.08.2019 02:00:00 24,3 17,5 0 0 N 1016,5 20
24.08.2019 01:00:00 - - - - - - -
24.08.2019 00:00:00 - - - - - - -
23.08.2019 23:00:00 28,3 14,5 4 2 WSW 1015,2 25
23.08.2019 22:00:00 - - - - - - -
23.08.2019 21:00:00 - - - - - - -
23.08.2019 20:00:00 34,4 17,2 11 6 WSW 1012,8 25
23.08.2019 19:00:00 - - - - - - -
23.08.2019 18:00:00 - - - - - - -
23.08.2019 17:00:00 36,5 16,1 9 5 SSE 1013,0 25
23.08.2019 16:00:00 - - - - - - -
23.08.2019 15:00:00 - - - - - - -
23.08.2019 14:00:00 34,9 15,3 8 4 E 1014,7 25
23.08.2019 13:00:00 - - - - - - -
23.08.2019 12:00:00 - - - - - - -
23.08.2019 11:00:00 29,9 16,0 9 5 E 1016,2 25
23.08.2019 10:00:00 - - - - - - -
23.08.2019 09:00:00 - - - - - - -
23.08.2019 08:00:00 22,7 13,7 9 5 E 1015,8 20
23.08.2019 07:00:00 - - - - - - -
23.08.2019 06:00:00 - - - - - - -
23.08.2019 05:00:00 23,7 12,0 4 2 SSE 1015,3 25
23.08.2019 04:00:00 - - - - - - -
23.08.2019 03:00:00 - - - - - - -
23.08.2019 02:00:00 27,4 15,4 0 0 N 1015,3 25
23.08.2019 01:00:00 - - - - - - -
23.08.2019 00:00:00 - - - - - - -
22.08.2019 23:00:00 28,9 17,1 9 5 SSE 1014,9 25
22.08.2019 22:00:00 - - - - - - -
22.08.2019 21:00:00 - - - - - - -
22.08.2019 20:00:00 33,9 18,0 13 7 SE 1013,2 25
22.08.2019 19:00:00 - - - - - - -
22.08.2019 18:00:00 - - - - - - -
22.08.2019 17:00:00 34,6 19,0 15 8 ESE 1013,5 25
22.08.2019 16:00:00 - - - - - - -
22.08.2019 15:00:00 - - - - - - -
22.08.2019 14:00:00 32,1 19,0 16 9 ESE 1015,1 20
22.08.2019 13:00:00 - - - - - - -
22.08.2019 12:00:00 - - - - - - -
22.08.2019 11:00:00 28,9 20,4 9 5 ENE 1016,5 20
22.08.2019 10:00:00 - - - - - - -
22.08.2019 09:00:00 - - - - - - -
22.08.2019 08:00:00 22,1 18,1 5 3 ENE 1016,3 15
22.08.2019 07:00:00 - - - - - - -
22.08.2019 06:00:00 - - - - - - -
22.08.2019 05:00:00 22,8 18,3 5 3 E 1016,5 15
22.08.2019 04:00:00 - - - - - - -
22.08.2019 03:00:00 - - - - - - -
22.08.2019 02:00:00 23,8 19,3 4 2 S 1017,3 15
22.08.2019 01:00:00 - - - - - - -
22.08.2019 00:00:00 - - - - - - -
21.08.2019 23:00:00 26,3 19,4 8 4 W 1016,1 20
21.08.2019 22:00:00 - - - - - - -
21.08.2019 21:00:00 - - - - - - -
21.08.2019 20:00:00 33,8 19,1 4 2 WNW 1013,3 20
21.08.2019 19:00:00 - - - - - - -
21.08.2019 18:00:00 - - - - - - -
21.08.2019 17:00:00 35,0 19,0 5 3 NW 1013,3 20
21.08.2019 16:00:00 - - - - - - -
21.08.2019 15:00:00 - - - - - - -
21.08.2019 14:00:00 33,2 19,7 4 2 NW 1014,9 20
21.08.2019 13:00:00 - - - - - - -
21.08.2019 12:00:00 - - - - - - -
21.08.2019 11:00:00 26,9 15,6 4 2 NNE 1016,7 20
21.08.2019 10:00:00 - - - - - - -
21.08.2019 09:00:00 - - - - - - -
21.08.2019 08:00:00 18,9 11,7 0 0 N 1016,5 20
21.08.2019 07:00:00 - - - - - - -
21.08.2019 06:00:00 - - - - - - -
21.08.2019 05:00:00 19,5 12,3 5 3 SSE 1015,8 20
21.08.2019 04:00:00 - - - - - - -
21.08.2019 03:00:00 - - - - - - -
21.08.2019 02:00:00 20,8 12,2 5 3 SSW 1016,5 25
21.08.2019 01:00:00 - - - - - - -
21.08.2019 00:00:00 - - - - - - -
20.08.2019 23:00:00 23,9 13,7 13 7 WSW 1015,6 20
20.08.2019 22:00:00 - - - - - - -
20.08.2019 21:00:00 - - - - - - -
20.08.2019 20:00:00 32,0 11,7 9 5 WSW 1013,5 25
20.08.2019 19:00:00 - - - - - - -
20.08.2019 18:00:00 - - - - - - -
20.08.2019 17:00:00 33,9 12,8 4 2 NW 1014,0 20
20.08.2019 16:00:00 - - - - - - -
20.08.2019 15:00:00 - - - - - - -
20.08.2019 14:00:00 29,6 17,4 5 3 W 1015,8 15
20.08.2019 13:00:00 - - - - - - -
20.08.2019 12:00:00 - - - - - - -
20.08.2019 11:00:00 23,6 17,3 9 5 WSW 1016,1 20
20.08.2019 10:00:00 - - - - - - -
20.08.2019 09:00:00 - - - - - - -
20.08.2019 08:00:00 17,6 11,8 5 3 SSW 1015,2 20
20.08.2019 07:00:00 - - - - - - -
20.08.2019 06:00:00 - - - - - - -
20.08.2019 05:00:00 20,6 12,3 9 5 SW 1014,8 25
20.08.2019 04:00:00 - - - - - - -
20.08.2019 03:00:00 - - - - - - -
20.08.2019 02:00:00 22,9 16,0 11 6 SW 1015,0 30
20.08.2019 01:00:00 - - - - - - -
20.08.2019 00:00:00 - - - - - - -
19.08.2019 23:00:00 24,5 16,0 13 7 WSW 1014,7 25
19.08.2019 22:00:00 - - - - - - -
19.08.2019 21:00:00 - - - - - - -
19.08.2019 20:00:00 30,6 15,1 18 10 W 1012,7 20
19.08.2019 19:00:00 - - - - - - -
19.08.2019 18:00:00 - - - - - - -
19.08.2019 17:00:00 33,1 18,8 9 5 W 1013,3 25
19.08.2019 16:00:00 - - - - - - -
19.08.2019 15:00:00 - - - - - - -
19.08.2019 14:00:00 32,3 19,5 8 4 W 1014,2 25
19.08.2019 13:00:00 - - - - - - -
19.08.2019 12:00:00 - - - - - - -
19.08.2019 11:00:00 25,4 19,1 9 5 SSW 1015,2 20
19.08.2019 10:00:00 - - - - - - -
19.08.2019 09:00:00 - - - - - - -
19.08.2019 08:00:00 18,9 13,1 4 2 SW 1015,1 25
19.08.2019 07:00:00 - - - - - - -

tt = temperature
td = dewpoint
ff = wind speed
dd = wind direction
ppp = reduced air pressure
vv = visibility

Next stations